{"data":{"norad_id":53628,"epoch":"2026-09-20T14:40:57.514656Z","epoch_age_seconds":71617,"freshness":"FRESH","line1":"1 53628U 22104AS  26263.61177679  .00000424  00000+0  23068-4 0  9998","line2":"2 53628  53.1604  67.0537 0001203  89.5573 270.5568 15.35402598225347","mean_motion":15.35402598,"eccentricity":0.0001203,"inclination_deg":53.1604,"raan_deg":67.0537,"arg_perigee_deg":89.5573,"mean_anomaly_deg":270.5568,"bstar":2.3068e-5,"rev_number":22534,"period_min":93.786476711433,"perigee_km":458.90233453851,"apogee_km":460.54752411871,"semimajor_km":6837.8619293286,"source":"CELESTRAK","updated_at":"2026-09-21T09:00:32.943734Z"}}